Park Rapids, MN

3:05 PM CDT on May 23, 2017 (GMT -0500)
Park Rapids Municipal

Weather History for KPKD - December, 2011

Change the Weather History Date:

Tuesday, December 13, 2011

  Actual Average Record
Temperature  
Mean Temperature 28 °F -  
Max Temperature 33 °F 23 °F 44 °F (1998)
Min Temperature 24 °F 2 °F -22 °F (1985)
Degree Days  
Heating Degree Days 36    
Moisture  
Dew Point 28 °F    
Average Humidity 93    
Maximum Humidity 100    
Minimum Humidity 84    
Precipitation  
Precipitation 0.00 in - - ()
Sea Level Pressure  
Sea Level Pressure 30.24 in    
Wind  
Wind Speed 5 mph (ESE)    
Max Wind Speed 13 mph    
Max Gust Speed -    
Visibility 4 miles    
Events Fog    
Averages and records for this station are not official NWS values.
T = Trace of Precipitation, MM = Missing Value Source: NWS Daily Summary

Daily Weather History Graph

Daily Weather History Graph

Search for Another Location

Airport or City:

Trip Planner

Search our weather history database for the weather conditions in past years. The results will help you decide how hot, cold, wet, or windy it might be!

Date:

Astronomy

Dec. 13, 2011 Rise Set
Actual Time 7:57 AM CST 4:31 PM CST
Civil Twilight 7:21 AM CST 5:06 PM CST
Nautical Twilight 6:43 AM CST 5:45 PM CST
Astronomical Twilight 6:06 AM CST 6:22 PM CST
Moon 7:55 PM CST (12/13) 10:01 AM CST (12/13)
Length of Visible Light 9h 45m
Length of Day
8h 34m
Waning Gibbous, 90% of the Moon is Illuminated
Dec 13
Waning Gibbous
Dec 17
Last Quarter
Dec 24
New
Jan 1
First Quarter
Jan 9
Full

Hourly Weather History & Observations

Time (CST) Temp. Windchill Dew Point Humidity Pressure Visibility Wind Dir Wind Speed Gust Speed Precip Events Conditions
12:53 AM 25.0 °F 20.7 °F 21.0 °F 85% 30.37 in 9.0 mi NE 3.5 mph - N/A   Overcast
1:53 AM 25.0 °F 18.1 °F 21.0 °F 85% 30.37 in 9.0 mi NNE 5.8 mph - N/A   Overcast
2:53 AM 25.0 °F 20.7 °F 21.0 °F 85% 30.38 in 9.0 mi SE 3.5 mph - N/A   Overcast
3:53 AM 25.0 °F - 21.0 °F 85% 30.36 in 9.0 mi Calm Calm - N/A   Overcast
4:53 AM 25.0 °F 19.3 °F 21.9 °F 88% 30.36 in 9.0 mi NE 4.6 mph - N/A   Overcast
5:20 AM 24.8 °F 17.9 °F 21.2 °F 86% 30.29 in 10.0 mi NE 5.8 mph - N/A   Overcast
5:39 AM 24.8 °F 20.5 °F 21.2 °F 86% 30.29 in 10.0 mi East 3.5 mph - N/A   Overcast
5:53 AM 25.0 °F 20.7 °F 21.9 °F 88% 30.36 in 10.0 mi East 3.5 mph - N/A   Overcast
6:53 AM 26.1 °F - 21.9 °F 84% 30.36 in 10.0 mi Calm Calm - N/A   Overcast
7:53 AM 26.1 °F - 23.0 °F 88% 30.35 in 10.0 mi Calm Calm - N/A   Overcast
8:53 AM 27.0 °F 21.6 °F 23.0 °F 85% 30.33 in 6.0 mi East 4.6 mph - N/A   Overcast
9:53 AM 28.0 °F 21.7 °F 26.1 °F 92% 30.32 in 4.0 mi East 5.8 mph - N/A   Overcast
10:53 AM 28.9 °F 23.9 °F 27.0 °F 92% 30.33 in 2.5 mi SE 4.6 mph - N/A   Overcast
11:02 AM 30.2 °F 25.4 °F 28.4 °F 93% 30.26 in 2.5 mi SE 4.6 mph - N/A   Overcast
11:18 AM 30.2 °F 25.4 °F 28.4 °F 93% 30.25 in 1.8 mi SE 4.6 mph - N/A   Overcast
11:35 AM 30.2 °F 25.4 °F 28.4 °F 93% 30.24 in 0.8 mi ESE 4.6 mph - N/A   Overcast
11:53 AM 30.0 °F 24.1 °F 28.9 °F 96% 30.31 in 0.2 mi ESE 5.8 mph - N/A Fog Light Freezing Fog
12:53 PM 30.9 °F 25.2 °F 30.0 °F 96% 30.28 in 0.2 mi ESE 5.8 mph - N/A Fog Light Freezing Fog
1:53 PM 32.0 °F 24.8 °F 30.9 °F 96% 30.25 in 0.2 mi SE 8.1 mph - N/A Fog Fog
2:53 PM 32.0 °F 24.8 °F 30.9 °F 96% 30.22 in 0.2 mi SE 8.1 mph - N/A Fog Fog
3:06 PM 32.0 °F 24.8 °F 32.0 °F 100% 30.16 in 0.5 mi SE 8.1 mph - N/A Fog Fog
3:53 PM 32.0 °F 24.8 °F 32.0 °F 100% 30.22 in 0.5 mi SSE 8.1 mph - N/A Fog Fog
4:53 PM 33.1 °F 25.5 °F 32.0 °F 96% 30.20 in 0.5 mi SE 9.2 mph - N/A Fog Fog
5:53 PM 33.1 °F 25.5 °F 32.0 °F 96% 30.19 in 0.8 mi SE 9.2 mph - N/A   Mist
6:53 PM 33.1 °F 24.4 °F 32.0 °F 96% 30.16 in 0.8 mi SE 11.5 mph - N/A   Overcast
7:53 PM 33.1 °F 25.5 °F 33.1 °F 100% 30.14 in 0.5 mi SSE 9.2 mph - N/A Fog Fog
8:53 PM 33.1 °F 23.9 °F 33.1 °F 100% 30.12 in 0.5 mi SE 12.7 mph - N/A Fog Fog
9:20 PM 33.8 °F 25.3 °F 33.8 °F 100% 30.05 in 0.2 mi SE 11.5 mph - N/A Fog Fog
9:53 PM 33.1 °F 25.5 °F 33.1 °F 100% 30.12 in 0.2 mi SSE 9.2 mph - N/A Fog Fog
10:53 PM 33.1 °F 23.9 °F 33.1 °F 100% 30.09 in 0.2 mi SSE 12.7 mph - N/A Fog Fog
11:08 PM 33.8 °F 25.8 °F 33.8 °F 100% 30.02 in 0.5 mi SSE 10.4 mph - N/A Fog Fog
11:53 PM 33.1 °F 25.5 °F 33.1 °F 100% 30.08 in 0.5 mi SSE 9.2 mph - N/A Fog Fog